This demonstration page uses our WeatherBlox Daily Observations layout. Learn more.

Left ArrowRight Arrow

39.51506, -84.39828

Hourly Observations for January 15, 2019

Temp ( °F °C ) Dew Point ( °F °C ) Humidity (%) Winds ( mph kmh ) Pressure ( in mb ) Visibility ( mi km ) Precip ( " mm )
12:15 am 00:15 Cloudy with Freezing Fog 9 -12.7 6 -14.2 89 89 Calm 30.39 1029 5 8 0.00 0.00
12:35 am 00:35 Cloudy with Freezing Fog 9 -12.6 7 -14 89 89 Calm 30.39 1029 5 8 0.00 0.00
12:55 am 00:55 Cloudy with Mist and Fog 10 -12 7 -14 85 85 Calm 30.36 1028 2 3 0.00 0.00
1:15 am 01:15 Cloudy with Mist and Fog 9 -13 7 -14 92 92 Calm 30.36 1028 3 4 0.00 0.00
1:35 am 01:35 Cloudy with Freezing Fog 8 -13.3 5 -14.9 88 88 Calm 30.36 1028 5 8 0.00 0.00
1:55 am 01:55 Cloudy with Freezing Fog 9 -13 7 -14 92 92 Calm 30.36 1028 5 8 0.00 0.00
2:15 am 02:15 Cloudy with Mist and Fog N/A N/A N/A Calm N/A 1 1 0.00 0.00
2:35 am 02:35 Cloudy with Freezing Fog 9 -13 7 -14 92 92 Calm 30.36 1028 5 8 0.00 0.00
2:55 am 02:55 Cloudy with Fog N/A N/A N/A Calm N/A 0 0 0.00 0.00
3:15 am 03:15 Cloudy with Fog N/A N/A N/A Calm N/A 5 8 0.00 0.00
3:35 am 03:35 Cloudy with Freezing Fog 9 -13 7 -14 92 92 Calm 30.36 1028 5 8 0.00 0.00
3:55 am 03:55 Cloudy with Freezing Fog 10 -12 7 -14 85 85 Calm 30.36 1028 5 8 0.00 0.00
4:15 am 04:15 Cloudy with Freezing Fog 10 -12 9 -13 92 92 Calm 30.36 1028 5 8 0.00 0.00
4:35 am 04:35 Cloudy with Freezing Fog 10 -12 7 -14 85 85 Calm 30.36 1028 5 8 0.00 0.00
4:55 am 04:55 Cloudy with Freezing Fog 13 -10.7 10 -12 90 90 Calm 30.36 1028 0 0 0.00 0.00
5:15 am 05:15 Cloudy with Mist and Fog 14 -10 12 -11 92 92 Calm 30.36 1028 2 3 0.00 0.00
5:35 am 05:35 Cloudy with Freezing Fog 16 -9 14 -10.1 92 92 Calm 30.36 1028 1 1 0.00 0.00
5:55 am 05:55 Cloudy with Mist and Fog 16 -9 14 -10 93 93 Calm 30.36 1028 1 1 0.00 0.00
6:15 am 06:15 Cloudy with Mist and Fog 16 -9.1 14 -10.2 92 92 Calm 30.36 1028 1 2 0.00 0.00
6:35 am 06:35 Cloudy with Mist and Fog 16 -9 14 -10.1 92 92 Calm 30.36 1028 2 2 0.00 0.00
6:55 am 06:55 Cloudy with Mist and Fog 16 -8.7 14 -9.8 92 92 Calm 30.36 1028 2 3 0.00 0.00
7:15 am 07:15 Cloudy with Mist and Fog 16 -8.7 14 -9.8 92 92 Calm 30.36 1028 2 3 0.00 0.00
7:35 am 07:35 Cloudy with Mist and Fog 17 -8.4 15 -9.5 92 92 Calm 30.39 1029 2 3 0.00 0.00
7:55 am 07:55 Cloudy with Mist and Fog 17 -8.3 15 -9.4 92 92 Calm 30.36 1028 1 2 0.00 0.00
8:15 am 08:15 Cloudy with Mist and Fog 18 -8 16 -9 93 93 Calm 30.36 1028 2 3 0.00 0.00
8:35 am 08:35 Cloudy with Mist and Fog 18 -8 16 -9 93 93 Calm 30.36 1028 2 3 0.00 0.00
8:55 am 08:55 Cloudy with Mist and Fog 18 -7.8 16 -8.8 93 93 Calm 30.36 1028 2 3 0.00 0.00
9:15 am 09:15 Cloudy with Mist and Fog 19 -7.5 17 -8.5 93 93 Calm 30.36 1028 2 3 0.00 0.00
9:35 am 09:35 Cloudy with Mist and Fog 19 -7 18 -8 93 93 Calm 30.36 1028 2 3 0.00 0.00
9:55 am 09:55 Cloudy with Mist and Fog 19 -7 18 -8 93 93 SSW 3 6 30.39 1029 2 3 0.00 0.00
10:15 am 10:15 Cloudy with Mist and Fog 19 -7 19 -7 100 100 SSW 3 6 30.39 1029 2 2 0.00 0.00
10:35 am 10:35 Cloudy with Mist and Fog 21 -6 19 -7 93 93 SSW 5 7 30.39 1029 2 3 0.00 0.00
10:55 am 10:55 Cloudy with Mist and Fog 21 -6 19 -7 93 93 SSW 6 9 30.39 1029 2 3 0.00 0.00
11:15 am 11:15 Cloudy with Mist and Fog 23 -5 21 -6 93 93 SSW 6 9 30.39 1029 3 4 0.00 0.00
11:35 am 11:35 Cloudy with Mist and Fog N/A N/A N/A SW 6 9 N/A 3 5 0.00 0.00
11:55 am 11:55 Cloudy with Haze N/A N/A N/A SW 6 9 N/A 4 6 0.00 0.00
12:15 pm 12:15 Cloudy with Haze N/A N/A N/A SW 7 11 N/A 5 8 0.00 0.00
12:35 pm 12:35 Cloudy with Haze N/A N/A N/A SW 8 13 N/A 5 8 0.00 0.00
12:55 pm 12:55 Cloudy with Mist and Fog 25 -4 23 -5 93 93 SW 7 11 30.30 1026 5 8 0.00 0.00
1:15 pm 13:15 Cloudy with Haze N/A N/A N/A SSW 7 11 N/A 5 8 0.00 0.00
1:35 pm 13:35 Cloudy with Haze N/A N/A N/A SSW 8 13 N/A 4 6 0.00 0.00
1:55 pm 13:55 Cloudy with Mist and Fog N/A N/A N/A SSW 8 13 N/A 4 6 0.00 0.00
2:15 pm 14:15 Cloudy with Mist and Fog 26 -3.6 25 -4.1 96 96 SSW 8 13 30.27 1025 4 6 0.00 0.00
2:35 pm 14:35 Cloudy with Mist and Fog 26 -3.5 25 -3.9 97 97 SSW 10 17 30.27 1025 3 5 0.00 0.00
2:55 pm 14:55 Cloudy with Mist and Fog 26 -3.2 26 -3.6 97 97 SSW 9 15 30.27 1025 3 4 0.00 0.00
3:15 pm 15:15 Cloudy with Mist and Fog 27 -3 26 -3.4 97 97 SSW 12 19 30.27 1025 3 5 0.00 0.00
3:35 pm 15:35 Cloudy with Mist and Fog 27 -2.8 26 -3.2 97 97 SW 10 17 30.27 1025 4 6 0.00 0.00
3:55 pm 15:55 Cloudy with Mist and Fog 27 -2.7 26 -3.1 97 97 SW 12 19 30.27 1025 4 6 0.00 0.00
4:15 pm 16:15 Cloudy with Mist and Fog 28 -2.5 27 -2.9 97 97 SW 10 17 30.27 1025 4 6 0.00 0.00
4:35 pm 16:35 Cloudy with Mist and Fog 28 -2.3 27 -2.6 98 98 SSW 10 17 30.24 1024 4 6 0.00 0.00
4:55 pm 16:55 Cloudy with Mist and Fog 28 -2.1 28 -2.5 97 97 SW 10 17 30.24 1024 4 6 0.00 0.00
5:15 pm 17:15 Cloudy with Mist and Fog 28 -2 28 -2.3 98 98 SSW 12 19 30.24 1024 4 6 0.00 0.00
5:35 pm 17:35 Cloudy with Mist and Fog 29 -1.8 28 -2.1 98 98 SSW 14 22 30.24 1024 5 8 0.00 0.00
5:55 pm 17:55 Cloudy with Mist and Fog 29 -1.8 28 -2.1 98 98 SW 12 19 30.24 1024 5 8 0.00 0.00
6:15 pm 18:15 Cloudy with Mist and Fog 29 -1.8 28 -2.1 98 98 SW 12 19 30.24 1024 7 11 0.00 0.00
6:35 pm 18:35 Cloudy with Mist and Fog 29 -1.7 28 -2 98 98 SW 9 15 30.24 1024 7 11 0.00 0.00
6:55 pm 18:55 Cloudy with Mist and Fog 29 -1.6 29 -1.9 98 98 SSW 14 22 30.24 1024 7 11 0.00 0.00
7:15 pm 19:15 Cloudy with Mist and Fog 29 -1.5 29 -1.8 98 98 SSW 13 20 30.24 1024 7 11 0.00 0.00
7:35 pm 19:35 Cloudy with Mist and Fog 29 -1.5 29 -1.8 98 98 SSW 12 19 30.24 1024 7 11 0.00 0.00
7:55 pm 19:55 Cloudy with Mist and Fog 29 -1.5 29 -1.8 98 98 SW 9 15 30.24 1024 5 8 0.00 0.00
8:15 pm 20:15 Cloudy with Mist and Fog 29 -1.4 29 -1.7 98 98 SSW 12 19 30.21 1023 7 11 0.00 0.00
8:35 pm 20:35 Cloudy 30 -1.3 29 -1.6 98 98 SSW 15 24 30.21 1023 7 11 0.00 0.00
8:55 pm 20:55 Cloudy 30 -1.2 29 -1.6 97 97 SW 15 24 30.21 1023 7 11 0.00 0.00
9:15 pm 21:15 Cloudy 30 -1.1 29 -1.5 97 97 SW 13 20 30.21 1023 7 11 0.00 0.00
9:35 pm 21:35 Cloudy 30 -0.9 29 -1.8 94 94 SW 15 24 30.21 1023 7 11 0.00 0.00
9:55 pm 21:55 Cloudy with Mist and Fog 31 -0.8 28 -2.1 91 91 SSW 14 22 30.21 1023 7 11 0.00 0.00
10:15 pm 22:15 Cloudy with Mist and Fog 31 -0.6 29 -1.8 92 92 SSW 13 20 30.21 1023 5 8 0.00 0.00
10:35 pm 22:35 Cloudy with Mist and Fog 31 -0.6 29 -1.6 93 93 SSW 12 19 30.21 1023 4 6 0.00 0.00
10:55 pm 22:55 Cloudy with Mist and Fog 31 -0.5 29 -1.4 94 94 SSW 10 17 30.21 1023 4 6 0.00 0.00
11:15 pm 23:15 Cloudy with Mist and Fog 31 -0.5 29 -1.5 93 93 SSW 13 20 30.21 1023 5 8 0.00 0.00
11:35 pm 23:35 Cloudy with Mist and Fog 31 -0.3 29 -1.4 92 92 SSW 13 20 30.21 1023 5 8 0.00 0.00
11:55 pm 23:55 Cloudy with Mist and Fog 32 -0.1 30 -1.3 92 92 SW 13 20 30.18 1022 5 8 0.00 0.00

Powered by AerisWeather